SCP
0 0 0 0 0 0 0 0 0 0 0 0 0 0 0 0 0 0 1 1 1 0 0 0 1 1 1 1 1 1 1 2 2 2 2 2 2 1 1 1 0 0 0 1 1 1 1 1 1
0 0 0 0 0 0 0 0 0 0 0 0 0 0 0 0 0 1 1 1 1 0 0 1 1 1 1 1 1 1 1 1 2 2 2 2 1 1 1 1 1 1 1 1 1 1 1 1 1
0 0 0 0 0 0 0 0 0 0 0 0 0 0 0 0 1 1 1 1 1 0 0 1 1 1 1 1 1 1 1 1 1 1 1 1 1 1 1 0 1 1 1 1 1 1 1 1 1
0 0 0 0 0 0 0 0 0 0 0 0 0 0 0 0 1 1 1 1 1 0 0 0 1 1 1 1 0 1 1 1 1 1 1 1 1 0 0 0 1 1 1 1 1 1 1 1 1
0 0 0 0 0 0 0 0 0 0 0 0 0 0 0 0 1 1 1 1 1 0 0 0 0 0 1 0 0 1 1 1 1 1 1 0 0 0 0 1 1 1 1 1 1 1 1 1 1
0 0 0 0 0 0 0 0 0 0 0 0 0 0 0 0 1 1 1 1 1 0 0 0 0 0 1 1 1 1 1 1 1 1 0 0 0 0 1 1 1 1 1 1 1 1 1 1 0
0 0 0 0 0 0 0 0 0 0 0 0 0 0 0 1 1 1 1 1 1 0 0 0 0 0 1 1 1 1 1 1 1 1 1 1 1 1 1 1 1 1 1 1 1 1 1 0 0
0 0 0 0 0 0 0 0 0 0 0 0 0 0 0 1 1 1 1 0 0 0 0 0 0 0 1 1 1 1 1 1 1 1 1 1 1 1 1 1 1 1 1 1 1 1 0 0 0
0 0 0 0 0 0 0 0 0 0 0 0 0 0 1 1 1 1 1 0 0 0 0 0 0 0 1 1 1 1 1 1 1 1 1 1 0 1 1 1 1 1 1 1 1 1 0 0 0
0 0 0 0 0 0 0 0 0 0 0 0 0 0 1 1 1 1 1 0 0 1 1 1 0 0 0 0 0 1 1 1 1 0 0 0 0 0 1 1 1 1 1 1 1 0 0 0 0
0 0 0 0 0 0 0 0 0 0 0 0 0 1 1 1 1 1 1 0 0 0 0 0 0 0 0 0 0 0 0 1 0 0 0 0 0 0 0 0 1 1 1 0 0 0 0 0 0
0 0 0 0 0 0 0 0 0 0 0 0 1 1 2 1 1 1 0 0 0 0 0 0 0 0 0 0 0 0 0 0 0 0 0 0 0 0 0 0 0 0 0 0 0 0 0 0 0
0 0 0 0 0 0 0 0 0 0 0 0 1 1 2 1 1 1 1 0 0 0 0 0 0 0 0 0 0 0 0 0 0 0 0 0 0 0 0 0 0 0 0 0 0 0 0 0 0
0 0 0 0 0 0 0 0 0 0 0 1 1 1 2 1 1 1 1 0 0 0 0 0 0 0 0 0 0 0 0 0 0 0 0 1 1 1 1 1 1 1 0 0 0 1 1 1 1
0 0 0 0 0 0 0 0 0 1 1 1 1 1 1 1 1 1 1 1 0 0 0 0 0 0 0 0 0 1 1 1 0 1 1 1 1 1 1 1 1 1 1 1 1 1 1 1 1
0 0 0 0 0 0 0 0 0 1 1 1 1 1 1 1 1 2 1 1 0 0 0 0 0 0 0 1 1 1 1 1 1 1 1 1 1 1 1 1 1 1 1 1 1 0 0 0 0
0 0 0 0 0 0 0 0 0 1 1 1 2 2 2 1 2 2 2 1 1 1 1 0 0 1 1 1 1 2 1 1 1 1 1 1 1 1 1 1 1 0 0 0 0 0 0 0 0
0 0 0 0 0 0 0 0 0 1 1 1 2 2 2 2 2 2 2 1 1 1 1 1 1 1 1 1 2 2 1 1 1 1 0 0 0 0 0 0 0 0 0 0 0 0 0 0 0
0 0 0 0 0 0 0 0 0 0 1 1 2 3 2 2 3 3 2 2 1 1 1 2 2 2 2 2 2 1 1 1 0 0 0 0 0 0 0 0 0 0 0 0 0 0 0 0 0
0 0 0 0 0 0 0 0 0 0 1 1 2 2 2 3 3 3 3 2 2 2 2 2 2 2 2 2 2 1 1 0 0 0 0 0 0 0 0 0 0 0 0 0 0 0 0 0 0
0 0 0 0 0 0 0 0 0 0 0 1 1 2 2 3 3 3 2 2 2 2 3 3 3 2 2 2 1 1 0 0 0 0 0 0 0 0 0 0 0 0 0 0 0 0 0 0 0
0 0 0 0 0 0 0 0 0 0 0 1 1 2 2 3 3 3 2 2 2 3 3 3 3 3 2 2 1 0 0 0 0 0 0 0 0 0 0 0 0 0 0 0 0 0 0 0 0
0 0 0 0 0 0 0 0 0 0 0 0 1 1 2 3 3 3 3 2 3 3 4 4 3 2 2 1 0 0 0 0 0 0 0 0 0 0 0 0 0 0 0 0 0 0 0 0 0
0 0 0 0 0 0 0 0 0 0 0 0 1 1 2 3 3 3 2 2 3 4 4 4 3 2 1 0 0 0 0 0 0 0 0 0 0 0 0 0 0 0 0 0 0 0 0 0 0
0 0 0 0 0 0 0 0 0 0 0 0 1 2 2 2 2 1 1 1 2 3 3 2 1 1 0 0 0 0 0 0 0 0 0 0 0 0 0 0 0 0 0 0 0 0 0 0 0
0 0 0 0 0 0 0 0 0 0 0 1 1 2 2 1 1 0 0 0 1 1 1 1 0 0 0 0 0 0 0 0 0 0 0 0 0 0 0 0 0 0 0 0 0 0 0 0 0
0 0 0 0 0 0 0 0 0 0 0 1 1 2 1 1 0 0 0 0 0 0 0 0 0 0 0 0 0 0 0 0 0 0 0 0 0 0 0 0 0 0 0 0 0 0 0 0 0
0 0 0 0 0 0 0 0 0 0 0 1 1 1 1 0 0 0 0 0 0 0 0 0 0 0 0 0 0 0 0 0 0 0 0 0 0 0 0 0 0 0 0 0 0 0 0 0 0
0 0 0 0 0 0 0 0 0 0 0 1 1 1 1 0 0 0 0 0 0 0 0 0 0 0 0 0 0 0 0 0 0 0 0 0 0 0 0 0 0 0 0 0 0 0 0 0 0
0 0 0 0 0 0 0 0 0 0 1 1 1 1 1 0 0 0 0 0 0 0 0 0 0 0 0 0 0 0 0 0 0 0 0 0 0 0 0 0 0 0 0 0 0 0 0 0 0
Wind_Speed
8 7 6 5 8 9 7 4 1 6 7 8 9 7 6 7 6 4 8 8 6 8 12 12 11 12 11 11 11 12 13 13 12 12 12 11 11 9 9 7 5 4 3 3 3 4 5 7 7
8 6 6 6 9 11 5 6 6 8 11 11 9 7 5 5 4 8 10 9 10 9 9 12 12 12 13 13 13 12 13 13 12 12 11 10 9 8 6 5 3 2 3 4 5 6 7 7 6
6 6 6 6 9 7 5 6 8 12 11 9 8 6 4 4 4 8 9 11 12 9 8 11 12 12 12 12 11 11 11 12 11 10 10 9 8 7 5 3 2 3 5 6 7 7 7 6 6
7 7 6 9 9 1 3 5 10 14 11 8 10 8 5 3 6 7 12 12 12 10 9 11 10 13 12 13 13 13 12 11 10 9 8 7 6 6 4 3 3 4 6 7 7 8 8 6 6
8 7 9 10 8 1 2 5 12 15 13 12 8 8 8 4 2 8 11 9 9 9 10 12 9 12 13 13 13 12 12 11 10 9 8 7 6 5 5 4 5 5 6 7 8 8 8 6 5
8 6 10 10 5 3 6 9 13 15 14 13 9 10 7 5 7 10 11 9 10 9 10 11 11 13 13 12 11 12 12 11 9 8 8 8 6 6 5 5 5 4 4 6 6 5 4 4 3
12 8 11 5 3 4 5 11 14 14 14 14 11 9 6 8 9 9 9 9 9 9 9 10 12 13 12 11 11 11 11 10 9 7 8 8 7 6 5 5 4 4 5 5 4 3 3 3 3
8 9 10 5 6 5 6 10 13 12 12 11 9 7 8 14 12 10 8 6 6 7 8 8 9 11 11 11 12 12 11 10 9 8 7 7 7 6 6 5 5 4 5 4 3 3 2 2 1
7 10 8 4 3 4 6 8 12 10 10 10 8 2 7 16 15 12 10 9 7 7 7 8 8 8 8 10 11 11 11 10 9 8 7 7 5 5 6 6 6 4 4 4 3 2 1 3 6
9 10 1 2 3 4 3 8 13 13 15 12 10 5 12 17 16 15 14 12 10 9 8 9 9 9 8 7 8 7 8 7 7 6 6 4 2 1 3 6 4 4 4 4 3 2 5 7 4
11 11 2 3 4 7 4 9 15 13 15 16 16 14 16 18 17 15 13 9 9 7 7 8 7 8 8 7 5 5 5 5 6 6 5 3 3 3 3 3 5 5 5 5 5 5 4 2 4
10 10 6 7 7 8 6 6 11 11 8 9 14 17 19 19 18 15 12 9 9 6 5 7 10 8 7 7 5 5 4 4 5 6 6 5 4 3 2 1 2 2 2 2 3 2 1 4 5
13 10 7 10 11 8 4 5 5 6 2 4 13 18 19 18 16 12 10 9 9 6 4 6 8 8 7 6 5 5 5 5 4 5 5 5 4 3 3 2 1 1 2 3 3 3 3 4 5
6 9 10 11 11 4 4 5 6 5 3 8 13 16 17 17 16 12 10 7 6 5 4 5 7 9 9 7 5 5 4 3 4 5 4 3 3 1 3 2 3 2 3 5 5 5 5 5 5
6 9 13 13 9 3 4 8 7 6 7 10 12 13 15 15 14 12 10 7 4 3 4 4 7 9 9 7 7 6 5 5 4 2 2 1 2 2 2 1 2 3 3 3 2 4 3 4 5
9 12 14 11 7 5 9 11 9 7 9 11 12 12 13 14 12 10 9 7 3 3 4 3 4 8 8 7 7 5 3 1 2 2 4 5 5 3 1 1 3 3 3 3 3 4 5 4 5
13 14 16 9 4 4 9 9 8 6 9 11 10 11 13 13 13 10 9 8 5 3 2 4 4 7 7 5 5 6 4 4 4 4 6 7 7 6 4 5 5 4 4 5 5 4 4 5 6
12 12 13 10 4 5 10 8 2 7 10 11 9 10 12 13 14 11 8 8 6 4 4 4 5 7 7 7 7 7 7 6 6 7 7 8 7 7 5 5 5 5 4 5 5 5 5 6 6
9 10 12 10 5 8 11 9 6 8 12 12 12 12 14 14 14 11 10 8 7 5 5 6 8 9 8 7 7 7 7 6 7 7 8 8 8 7 6 4 5 5 5 5 5 4 6 6 5
12 14 15 13 7 8 10 12 11 10 14 14 13 14 14 13 14 12 12 11 8 7 7 7 8 8 6 6 5 6 6 7 7 7 7 7 7 6 5 4 4 5 5 4 4 5 6 6 5
15 15 15 14 10 10 14 17 18 13 13 12 14 16 18 17 16 14 13 11 9 8 9 9 8 8 8 9 8 8 9 8 6 5 4 4 4 4 5 6 5 5 6 4 4 4 6 6 6
16 15 14 15 15 12 8 15 11 13 14 14 15 16 18 18 17 15 13 12 11 10 11 12 11 11 11 9 8 7 6 5 4 3 2 2 3 5 5 4 4 3 4 3 3 4 5 6 6
14 10 11 14 15 15 12 12 13 9 12 17 18 17 17 18 18 16 16 15 14 13 13 13 14 13 12 9 9 8 7 6 4 3 2 2 1 3 5 4 4 3 3 3 3 4 5 5 6
11 10 10 11 12 15 16 17 13 10 13 16 16 16 16 15 15 16 16 15 13 13 13 13 14 12 11 10 9 8 8 5 3 2 3 4 2 2 5 5 4 3 3 3 3 3 4 4 5
11 11 11 13 14 15 12 12 11 8 6 7 8 16 15 15 17 17 17 15 13 14 14 13 13 12 10 10 8 8 6 4 2 2 3 4 2 2 5 3 3 3 3 4 4 4 4 3 4
15 15 14 12 12 10 6 8 10 3 1 2 7 16 16 17 17 17 15 15 14 14 13 14 12 12 10 9 8 6 4 2 2 5 2 2 2 3 2 3 3 4 4 4 5 6 5 4 5
15 14 17 16 17 13 13 12 8 8 5 5 11 17 17 17 16 15 14 12 12 12 12 13 14 12 10 9 7 6 5 6 5 5 1 1 2 2 3 4 5 5 6 6 7 7 7 8 8
14 14 10 14 16 16 15 11 10 7 10 12 15 16 16 18 17 14 12 11 11 12 11 13 13 12 10 9 7 5 6 5 2 1 2 3 3 4 5 5 6 7 8 8 8 9 10 9 10
13 14 14 11 11 12 14 11 2 1 4 10 15 17 17 17 16 16 14 13 12 13 12 11 11 11 10 9 6 3 4 1 2 3 3 3 4 5 6 6 7 9 10 11 11 12 13 14 12
10 10 14 13 13 12 12 9 4 3 6 9 14 16 18 17 16 15 14 14 13 13 12 11 9 10 9 6 3 3 3 1 3 4 4 5 6 7 8 9 10 12 13 13 14 14 15 16 16
Wind_Direction
193 207 242 240 239 240 241 144 195 138 111 79 73 60 57 29 2 53 125 138 151 141 132 150 151 147 141 134 132 130 126 122 119 117 117 118 121 123 123 130 139 141 135 124 115 100 83 74 63
189 202 230 237 250 238 170 131 170 102 94 115 107 106 99 74 57 120 142 148 157 145 143 144 152 149 151 151 151 146 139 132 125 121 122 124 122 120 124 140 138 113 70 60 66 79 86 82 71
203 231 255 246 244 269 78 143 131 108 130 140 124 98 77 86 126 133 120 142 149 140 140 123 151 149 154 154 151 147 141 133 129 128 127 127 126 127 127 124 91 67 67 68 69 75 83 87 84
215 214 232 248 242 250 11 113 132 135 144 142 131 118 100 75 135 135 140 148 142 137 137 120 151 149 156 155 156 152 143 140 138 140 137 138 137 134 130 118 96 89 85 82 88 95 93 91 88
231 245 238 239 249 151 154 138 156 151 147 149 151 134 133 132 153 146 150 150 137 139 136 133 145 142 153 155 158 150 140 142 149 150 149 149 151 140 127 113 99 94 94 98 102 101 97 91 80
223 240 245 230 182 170 173 171 164 153 152 153 161 144 131 151 185 166 157 157 147 144 140 131 135 139 142 145 148 145 143 149 152 152 151 148 150 143 133 120 114 117 119 116 113 115 113 99 78
253 242 263 280 182 155 141 178 180 155 163 160 155 158 140 182 197 172 168 163 154 149 140 140 137 136 127 125 129 136 142 147 147 154 158 151 148 146 143 135 125 117 112 108 104 104 98 83 47
263 265 251 224 197 141 132 174 193 183 170 144 171 189 171 176 189 177 180 176 158 137 130 133 139 140 133 129 134 138 137 136 141 152 152 146 154 153 152 163 117 111 123 122 98 70 60 69 72
247 252 232 162 200 139 160 166 173 180 160 181 195 244 99 147 175 182 186 188 172 148 145 144 145 145 145 132 139 141 135 138 151 160 155 187 184 168 153 98 81 88 105 107 89 76 75 232 196
233 250 208 34 322 313 198 178 158 172 178 194 197 168 127 152 178 188 192 190 179 157 164 171 164 164 155 143 149 157 153 167 164 166 168 198 135 82 62 101 107 118 133 143 141 179 232 241 226
229 254 41 283 320 307 263 176 167 179 189 202 200 174 158 170 186 196 195 182 165 148 181 185 173 178 165 153 161 161 161 163 161 170 183 168 181 176 199 171 179 176 182 193 188 200 235 292 303
240 243 264 289 306 292 296 170 175 194 215 204 196 175 174 181 189 192 183 167 143 146 161 166 190 182 179 155 179 153 165 169 171 158 181 185 203 186 208 188 142 202 189 211 222 229 227 257 265
238 250 253 264 276 283 253 203 181 211 253 216 179 175 181 187 189 183 170 167 148 138 124 159 186 174 173 186 165 158 158 183 161 177 187 221 220 184 199 149 252 289 283 267 276 279 254 261 250
238 254 263 268 266 261 228 155 206 164 203 183 179 185 185 191 185 169 158 159 137 144 138 135 175 175 182 190 168 163 176 153 190 196 181 218 262 257 273 240 251 301 329 341 343 342 318 304 304
252 258 253 242 243 249 239 188 198 124 189 189 190 191 188 192 186 170 158 145 133 130 106 131 170 176 183 182 172 183 176 188 188 151 88 351 318 342 285 305 4 34 29 4 352 320 311 308 321
234 238 243 220 209 202 232 222 142 160 194 201 195 188 189 193 188 165 130 115 146 119 94 94 156 166 180 180 172 162 130 131 96 100 80 49 43 26 356 55 53 22 17 11 3 352 336 329 328
216 234 231 203 175 226 233 237 128 179 208 214 199 188 189 188 191 167 136 140 143 127 88 83 138 159 160 139 127 111 112 98 89 82 78 67 58 46 38 41 43 12 21 21 360 357 349 327 314
231 227 241 234 180 261 256 251 168 217 224 222 200 186 190 196 203 170 154 142 136 117 90 93 117 120 121 128 131 118 105 90 77 68 73 73 67 61 57 69 41 19 22 25 8 348 335 317 317
283 272 262 249 252 267 258 255 223 241 233 226 206 193 200 190 206 169 169 159 151 133 108 110 117 134 150 153 142 123 114 111 102 88 75 71 65 56 39 39 37 12 17 10 353 336 307 296 304
234 242 251 254 248 258 259 252 248 237 239 232 217 204 209 192 198 184 175 173 164 139 123 119 125 135 144 128 107 111 109 89 77 77 74 72 71 63 56 20 354 354 327 296 314 319 302 291 291
231 243 254 259 252 249 257 255 244 220 230 236 233 219 197 199 195 181 184 172 162 143 125 121 119 117 109 109 111 111 116 122 121 112 118 103 82 44 19 358 346 325 294 326 336 330 320 322 313
242 236 251 263 261 262 247 272 243 209 216 225 230 222 207 188 196 179 166 161 149 144 135 130 124 115 110 116 121 130 128 127 135 150 140 126 41 356 357 357 4 349 330 21 360 16 336 336 325
246 250 243 253 255 264 253 253 258 219 233 228 220 214 206 186 182 174 159 148 149 149 140 132 124 116 113 118 125 131 127 135 152 146 186 247 31 14 4 22 25 6 354 38 15 3 349 335 335
234 240 239 246 248 250 244 251 256 216 219 239 203 195 195 182 157 149 144 141 144 142 134 125 119 120 125 131 134 127 120 121 133 86 319 329 3 36 47 18 27 0 342 347 332 342 338 340 329
221 232 234 221 223 239 236 239 254 257 240 268 186 178 178 147 140 143 144 141 143 142 135 128 131 129 130 121 114 104 106 110 103 65 17 321 345 30 63 357 1 334 336 317 310 311 307 307 312
208 230 250 260 257 258 151 238 261 230 325 279 183 158 148 143 146 147 148 146 148 145 143 139 133 125 114 101 92 82 49 52 53 70 43 303 350 27 31 329 338 328 321 314 301 288 292 300 287
231 225 248 267 273 272 261 258 251 208 201 199 161 142 141 142 146 149 150 149 145 143 147 136 122 112 98 85 69 61 41 35 50 81 247 297 343 356 342 314 300 300 303 311 307 293 291 283 282
244 248 229 228 244 256 258 247 237 203 195 181 160 150 149 150 149 147 152 145 139 139 123 112 111 95 81 73 61 49 62 61 68 233 341 341 336 341 324 306 297 288 286 289 291 290 288 285 282
208 227 237 261 261 259 260 258 74 183 207 192 164 153 156 158 156 154 148 136 144 138 129 123 109 95 83 73 71 60 65 97 228 279 332 310 290 291 295 300 297 292 288 286 282 279 279 278 273
273 246 227 236 247 245 263 272 91 268 243 208 167 158 159 162 158 147 140 150 156 145 139 125 104 91 88 95 111 100 80 325 273 291 313 296 282 285 290 292 287 285 284 284 284 284 286 290 291